Regional Weather Roundup
Issued by NWS Lake Charles, LA

Home | Current Version | Previous Version | Text Only | Print | Product List | Glossary On
Versions: 1 2 3 4 5 6 7 8 9 10 11 12 13 14 15 16 17 18 19 20 21 22 23 24 25 26 27
000
ASUS44 KLCH 201810
RWRLCH
REGIONAL WEATHER ROUNDUP
NATIONAL WEATHER SERVICE LAKE CHARLES LA
100 PM CDT WED SEP 20 2017

Note: "fair" indicates few or no clouds below 12,000 feet with no
significant weather and/or obstructions to visibility.


ACROSS SOUTHEAST TEXAS

CITY           SKY/WX    TMP DP  RH WIND       PRES   REMARKS
BEAUMONT       MOSUNNY   85  78  80 VRB5      29.96F THUNDER
BEAUMONT CITY  FAIR      90  73  58 SW5       29.97F
ORANGE         PTCLDY    84  79  83 S3        29.99F
JASPER           N/A     90  76  64 S7        29.99F HX 101
$$

ACROSS CENTRAL LOUISIANA

CITY           SKY/WX    TMP DP  RH WIND       PRES   REMARKS
LEESVILLE      MOSUNNY   88  74  62 SE9       29.97F
FULLERTON      MOCLDY    90  74  59 VRB5      29.96F
ALEXANDRIA INT MOSUNNY   89  73  59 SW9       29.97F
ESLER FIELD    PTSUNNY   92  75  57 S9        29.99F HX 103
DERIDDER       FAIR      87  73  63 S10       30.01F
OAKDALE        CLOUDY    88  74  63 SW8       29.99F
OPELOUSAS      MOCLDY    85  76  73 SW8       30.00F
$$

ACROSS SOUTHWEST AND SOUTH CENTRAL LOUISIANA

CITY           SKY/WX    TMP DP  RH WIND       PRES   REMARKS
SULPHUR        MOCLDY    89  74  59 S10       29.99F
LAKE CHARLES   CLOUDY    89  73  59 SW10      29.98F
CHENNAULT INT  NOT AVBL
CAMERON PHI      N/A     86  77  74 S12       29.98F
DEQUINCY       FAIR      84  75  75 S3        29.99F
JENNINGS       HVY RAIN  77  73  87 S7G16     30.00S
LAFAYETTE      CLOUDY    86  75  69 S8        30.00F
NEW IBERIA     CLOUDY    89  73  59 S12       30.01F
ABBEVILLE      MOCLDY    88  77  70 S8        30.00F HX 100
PATTERSON      CLOUDY    86  75  69 SW10      30.02S
SALT POINT       N/A     87  75  67 VRB3      30.01S
$$

SELECTED SITES ACROSS THE REGION

CITY           SKY/WX    TMP DP  RH WIND       PRES   REMARKS
HOUSTON BUSH   PTSUNNY   91  73  55 S9        29.94F
HOUSTON HOBBY  MOSUNNY   91  75  59 S14G21    29.94F HX 101
GALVESTON      MOSUNNY   90  79  70 S15       29.97F HX 106
COLLEGE STAT   PTSUNNY   89  74  60 S9        29.93F
CONROE         PTSUNNY   89  72  56 SW9       29.95F
HUNTSVILLE     PTSUNNY   89  71  55 S9        29.95F
LUFKIN         MOSUNNY   88  74  63 S9        29.96F
SHREVEPORT     MOSUNNY   89  76  65 S10       29.95F HX 100
MONROE         CLOUDY    87  74  64 SW7       30.01F
NATCHEZ MS     MOSUNNY   86  73  65 S8        30.02F
BATON ROUGE    PTSUNNY   87  72  60 VRB3      30.01F
N.O. INTL ARPT CLOUDY    89  73  59 CALM      30.01F
SLIDELL        PTSUNNY   88  69  53 CALM      30.01F
$$

MARINE REPORTS

STATION/POSITION TIME  SKY/WX   TEMP    WIND        PRES    VSBY
                                AIR SEA DIR/SP/G
                 (UTC)          (F)     (DEG/KT/KT) (MB)    (MI)
BUOY 30 S HIGH I 1650            83 83  180/ 10/ 12 1015.1
WVE H/P(F/S)=  3/ 5

SEA RIM ST PARK  1700            86     190/  8/ 11 1015.9F
PORT ARTHUR      1748            86 82  170/  7/ 12 1015.2F
SABINE PASS N    1748            86 85  170/ 12/ 16 1016.7F
TEXAS POINT      NOT AVBL
CALCASIEU PASS   1748               84  200/ 11/ 13 1014.8F
LK CHARLES BEACH NOT AVBL
MARSH ISLAND     1700            85                   N/A
FRESH WATER LOCK 1748            83 85  180/ 11/ 13 1016.3S
AMERADA PASS     1748            85 82  170/  4/  9 1016.6F
$$




USA.gov is the U.S. government's official web portal to all federal, state and local government web resources and services.